Weather History for Cut Bank, MT

Change the Weather History Date:

Tuesday, February 5, 2013

  Actual Average Record
Temperature  
Mean Temperature 42 °F 23 °F  
Max Temperature 54 °F 34 °F 65 °F (1984)
Min Temperature 30 °F 12 °F -31 °F (1914)
Degree Days  
Heating Degree Days 23 42  
Month to date heating degree days 121 210  
Since 1 July heating degree days 4864 5128  
Cooling Degree Days 0 0  
Month to date cooling degree days 0 0  
Year to date cooling degree days 0 0  
Moisture  
Dew Point 24 °F    
Average Humidity 51    
Maximum Humidity 72    
Minimum Humidity 29    
Precipitation  
Precipitation 0.00 in 0.01 in 0.05 in (1937)
Month to date precipitation 0.00 0.03  
Year to date precipitation 0.42 0.23  
Snow  
Snow 0.00 in - - ()
Snow Depth 0.00 in    
Sea Level Pressure  
Sea Level Pressure 29.75 in    
Wind  
Wind Speed 17 mph (WSW)    
Max Wind Speed 43 mph    
Max Gust Speed 52 mph    
Visibility 10 miles    
Events      
T = Trace of Precipitation, MM = Missing Value Source: NWS Daily Summary

Daily Weather History Graph

Daily Weather History Graph

Search for Another Location

Airport:

Trip Planner

Search our weather history database for the weather conditions in past years. The results will help you decide how hot, cold, wet, or windy it might be!

Date:

Astronomy

Feb. 05, 2013 Rise Set
Actual Time 7:52 AM MST 5:35 PM MST
Civil Twilight 7:19 AM MST 6:08 PM MST
Nautical Twilight 6:42 AM MST 6:45 PM MST
Astronomical Twilight 6:05 AM MST 7:22 PM MST
Moon 3:48 AM MST (2/5) 12:46 PM MST (2/5)
Length of Visible Light 10h 48m
Length of Day
9h 42m
Waning Crescent, 26% of the Moon is Illuminated
Feb 5
Waning Crescent
Feb 10
New
Feb 17
First Quarter
Feb 25
Full
Mar 4
Last Quarter

Hourly Weather History & Observations

Time (MST) Temp. Windchill Dew Point Humidity Pressure Visibility Wind Dir Wind Speed Gust Speed Precip Events Conditions
12:56 AM 32.0 °F 26.4 °F 21.9 °F 66% 29.91 in 10.0 mi West 5.8 mph - N/A   Clear
1:56 AM 33.1 °F 28.7 °F 23.0 °F 66% 29.90 in 10.0 mi South 4.6 mph - N/A   Clear
2:56 AM 33.1 °F 24.9 °F 24.1 °F 70% 29.89 in 10.0 mi West 10.4 mph - N/A   Clear
3:56 AM 30.9 °F 22.8 °F 23.0 °F 72% 29.88 in 10.0 mi West 9.2 mph - N/A   Clear
4:56 AM 35.1 °F 27.4 °F 24.1 °F 64% 29.88 in 10.0 mi WSW 10.4 mph - N/A   Clear
5:56 AM 35.1 °F 27.9 °F 23.0 °F 61% 29.87 in 10.0 mi WSW 9.2 mph - N/A   Clear
6:56 AM 35.1 °F 28.6 °F 23.0 °F 61% 29.88 in 10.0 mi WSW 8.1 mph - N/A   Scattered Clouds
7:56 AM 37.0 °F 30.4 °F 23.0 °F 57% 29.85 in 10.0 mi SW 9.2 mph - N/A   Overcast
8:56 AM 37.9 °F 30.0 °F 23.0 °F 55% 29.82 in 10.0 mi SW 12.7 mph - N/A   Clear
9:56 AM 43.0 °F 38.8 °F 24.1 °F 47% 29.78 in 10.0 mi SSW 6.9 mph - N/A   Clear
10:56 AM 44.1 °F 40.8 °F 24.1 °F 45% 29.77 in 10.0 mi Variable 5.8 mph - N/A   Overcast
11:56 AM 46.0 °F 38.3 °F 25.0 °F 44% 29.74 in 10.0 mi SW 20.7 mph - N/A   Overcast
12:56 PM 50.0 °F - 25.0 °F 38% 29.72 in 10.0 mi WSW 21.9 mph - N/A   Unknown
1:56 PM 52.0 °F - 24.1 °F 34% 29.66 in 10.0 mi SW 33.4 mph 40.3 mph N/A   Clear
2:56 PM 53.1 °F - 23.0 °F 31% 29.68 in 10.0 mi WSW 24.2 mph 33.4 mph N/A   Overcast
3:56 PM 48.9 °F - 24.1 °F 38% 29.67 in 10.0 mi WSW 29.9 mph 34.5 mph N/A   Clear
4:56 PM 46.0 °F 37.6 °F 23.0 °F 40% 29.64 in 10.0 mi WSW 24.2 mph 32.2 mph N/A   Clear
5:56 PM 39.2 °F 31.6 °F 24.8 °F 56% 29.59 in 10.0 mi WSW 12.7 mph 27.6 mph N/A   Clear
6:56 PM 39.9 °F 27.5 °F 25.0 °F 55% 29.60 in 10.0 mi WSW 35.7 mph 44.9 mph N/A   Clear
7:56 PM 39.0 °F 25.7 °F 28.0 °F 65% 29.61 in 10.0 mi West 39.1 mph 49.5 mph N/A   Clear
8:56 PM 37.0 °F 25.4 °F 27.0 °F 67% 29.65 in 10.0 mi West 25.3 mph 35.7 mph N/A   Clear
9:56 PM 35.1 °F 23.8 °F 26.1 °F 70% 29.68 in 10.0 mi WNW 20.7 mph 29.9 mph N/A   Clear
10:56 PM 35.1 °F 23.8 °F 23.0 °F 61% 29.68 in 10.0 mi WNW 20.7 mph 28.8 mph N/A   Clear
11:56 PM 30.0 °F 19.5 °F 21.9 °F 72% 29.73 in 10.0 mi West 13.8 mph - N/A   Partly Cloudy